[[{"header":{"parameterUnit":"m.s-1","parameterCategory":1,"la1":30.2991,"la2":30.254,"lo1":-89.0895,"lo2":-89.0444,"dy":0.0017,"dx":0.0017,"nx":28,"ny":28,"refTime":"2025-12-25T09:00:00:Z","depth":0,"parameterNumber":2,"parameterNumberName":"U-component_of_WINDS"},"data":[0,0,0,0,0,0,0,0,0,0,0,0,0,0,0,0,0,0,0,0,0,0,0,0,0,0,0,0,0,0,0,0,0,0,0,0,0,0,0,0,0,0,0,0,0,0,0,0,0,0,0,0,0,0,0,0,0,0,2.1713,2.1713,0,2.1748,2.1749,2.1749,2.1716,2.1715,2.1714,2.1712,2.1754,2.1756,2.1759,0,0,0,0,0,0,0,0,0,0,0,0,0,2.1621,2.1623,2.1713,2.1713,2.1713,2.1748,2.1749,2.1749,2.1717,2.1715,2.1713,2.1712,2.1753,2.1756,2.1759,0,0,0,0,0,0,0,0,0,0,0,0,0,2.1659,2.1623,2.1712,2.1701,2.1701,2.1748,2.1749,2.1749,2.1717,2.1715,2.1713,2.1711,2.1752,2.1756,2.1759,2.1821,0,0,2.177,2.1772,0,0,0,0,0,0,0,0,2.1657,2.1663,2.1702,2.1702,2.1701,2.1726,2.1732,2.1774,2.1717,2.1711,2.1712,2.171,2.1747,2.1751,2.1762,2.1823,2.1825,2.177,2.1773,2.1774,2.1775,0,0,0,0,0,0,0,2.1654,2.1661,2.1727,2.1703,2.1702,2.1696,2.1699,2.174,2.174,2.1711,2.1709,2.1713,2.1746,2.1758,2.1763,2.1826,2.177,2.1773,2.1776,2.1777,2.1941,2.1943,0,0,0,0,0,0,2.1652,2.1659,2.1726,2.1728,2.1674,2.1699,2.1703,2.172,2.1739,2.174,2.1715,2.1712,2.1753,2.1758,2.1764,2.1838,2.1774,2.1777,2.1779,2.1939,2.1942,2.1944,0,0,0,0,0,0,2.1651,2.1659,2.1724,2.1693,2.1701,2.1703,2.1723,2.1722,2.1734,2.1742,2.1742,2.1727,2.1752,2.1759,2.1807,2.1839,2.1779,2.1782,2.1936,2.194,2.1943,2.1987,0,0,0,0,0,0,2.1648,2.1658,2.168,2.1693,2.1702,2.1765,2.1724,2.1724,2.174,2.1736,2.1754,2.1755,2.1751,2.1802,2.1811,2.1843,2.1785,2.1934,2.1938,2.1942,2.1983,2.1992,2.1999,0,0,0,0,0,2.1645,2.1692,2.1682,2.169,2.173,2.1767,2.1773,2.1766,2.1742,2.1766,2.1771,2.1754,2.1834,2.1807,2.1817,2.1851,2.1932,2.1937,2.1942,2.1979,2.199,2.1999,0,0,0,0,0,0,2.1684,2.1694,2.1682,2.1735,2.175,2.1762,2.1791,2.1777,2.1801,2.1796,2.1789,2.1793,2.1844,2.1852,2.1822,2.1912,2.1879,2.1887,2.1905,2.1915,2.1923,2.192,2.1788,0,0,0,0,0,2.1699,2.1727,2.1734,2.178,2.1788,2.1788,2.1804,2.1798,2.1814,2.1821,2.183,2.1848,2.1877,2.1897,2.1924,2.1984,2.1988,2.2012,2.202,2.2027,2.2033,2.2067,2.2078,2.1961,2.1961,2.1961,0,0,2.173,2.1738,2.1757,2.1788,2.1799,2.183,2.1794,2.1828,2.1851,2.1827,2.1872,2.188,2.1899,2.1954,2.1979,2.1963,2.2067,2.2033,2.2039,2.2041,2.2073,2.2084,2.2094,2.1964,2.1964,2.1963,0,0,2.1801,2.181,2.185,2.1862,2.1879,2.1878,2.1888,2.1902,2.1905,2.1951,2.1933,2.1962,2.2012,2.2027,2.2041,2.212,2.2106,2.2129,2.2172,2.2204,2.2214,2.2222,2.225,2.2261,2.2136,2.2136,2.2136,0,2.1838,2.1881,2.1872,2.1907,2.1922,2.19,2.1941,2.1954,2.198,2.1991,2.1973,2.2036,2.2048,2.2106,2.2125,2.2137,2.2149,2.2127,2.2213,2.2221,2.2228,2.2256,2.2266,2.2138,2.2138,2.2138,2.2138,0,2.1926,2.1957,2.1987,2.2011,2.2029,2.2067,2.2065,2.2085,2.2078,2.208,2.2128,2.2141,2.2171,2.2185,2.2178,2.2243,2.2232,2.2213,2.218,2.2242,2.2268,2.2278,2.2142,2.2141,2.2141,2.214,0,0,2.2023,2.2041,2.2052,2.2063,2.2081,2.2106,2.2143,2.2171,2.2189,2.2208,2.2241,2.2284,2.2267,2.2283,2.2278,2.2307,2.2369,2.2285,2.2285,2.23,2.2443,2.2457,2.2469,2.236,2.2362,2.2364,2.2441,0,2.2095,2.2158,2.2151,2.2213,2.2242,2.2222,2.2255,2.2271,2.2275,2.2301,2.2306,2.2337,2.2312,2.2322,2.2349,2.2356,2.2398,2.235,2.2392,2.2393,2.2387,2.2482,2.2497,2.2569,2.2451,2.2453,2.2454,0,2.2187,2.2208,2.2272,2.2286,2.2298,2.2328,2.2353,2.2378,2.2396,2.2397,2.2416,2.2406,2.2446,2.2412,2.2468,2.2436,2.2453,2.2459,2.2462,2.2465,2.2427,2.2488,2.2591,2.2602,2.2469,2.2468,2.2467,0,2.2252,2.2296,2.234,2.235,2.2367,2.2389,2.2398,2.2413,2.2431,2.2454,2.2466,2.2494,2.251,2.2533,2.2532,2.2507,2.2589,2.2555,2.2592,2.2592,2.261,2.2609,2.2717,2.2621,2.262,2.262,2.262,0,2.2333,2.2373,2.2369,2.2396,2.2441,2.2434,2.2479,2.2485,2.25,2.2529,2.2515,2.2543,2.254,2.2569,2.2569,2.2616,2.2624,2.2626,2.2626,2.2628,2.2627,2.2639,2.2634,2.2623,2.2623,2.2622,2.2621,0,2.2412,2.2411,2.2458,2.247,2.2474,2.2507,2.2519,2.2545,2.2548,2.2586,2.2594,2.2599,2.2633,2.2634,2.2673,2.2673,2.2731,2.2724,2.2724,2.2723,2.276,2.2757,2.2879,2.2896,2.2789,2.279,2.279,0,2.2463,2.2493,2.2509,2.2527,2.2537,2.2566,2.2583,2.2579,2.2598,2.2621,2.2646,2.2678,2.2703,2.2758,2.2766,2.2797,2.2791,2.2832,2.2796,2.2797,2.2793,2.2791,2.2794,2.284,2.2841,2.2842,2.2842,0,2.2556,2.2554,2.2579,2.2604,2.2625,2.2645,2.2664,2.268,2.2678,2.2701,2.2734,2.2753,2.2793,2.2826,2.2855,2.2866,2.2855,2.2854,2.2864,2.2866,2.2865,2.2866,2.2743,2.2851,2.285,2.285,2.2849,2.2849,2.2622,2.2649,2.2664,2.2693,2.2706,2.2724,2.275,2.2756,2.2783,2.2813,2.281,2.2847,2.2866,2.2905,2.2918,2.2949,2.2935,2.295,2.2954,2.2957,2.2961,2.286,2.2954,2.2954,2.2954,2.2954,2.2954,0,2.2714,2.2723,2.2749,2.2775,2.2799,2.2784,2.2805,2.2826,2.2858,2.2876,2.2901,2.2941,2.2972,2.2984,2.3015,2.3038,2.3033,2.3046,2.3044,2.3047,2.2972,2.296,2.3049,2.3049,2.3049,2.3049,2.3049,2.3049,2.2764,2.2807,2.2808,2.2859,2.2868,2.2903,2.2916,2.2934,2.2948,2.2992,2.3018,2.3024,2.304,2.3073,2.3102,2.3105,2.3117,2.3133,2.3133,2.3062,2.3053,2.3043,2.3032,2.3135,2.3135,2.3206,2.3207,2.3207]},{"header":{"parameterUnit":"m.s-1","parameterCategory":1,"la1":30.2991,"la2":30.254,"lo1":-89.0895,"lo2":-89.0444,"dy":0.0017,"dx":0.0017,"nx":28,"ny":28,"refTime":"2025-12-25T09:00:00:Z","depth":0,"parameterNumber":3,"parameterNumberName":"V-component_of_WINDS"},"data":[0,0,0,0,0,0,0,0,0,0,0,0,0,0,0,0,0,0,0,0,0,0,0,0,0,0,0,0,0,0,0,0,0,0,0,0,0,0,0,0,0,0,0,0,0,0,0,0,0,0,0,0,0,0,0,0,0,0,1.5355,1.5355,0,1.5374,1.5374,1.5374,1.537,1.537,1.5369,1.5369,1.5387,1.5387,1.5388,0,0,0,0,0,0,0,0,0,0,0,0,0,1.5316,1.5317,1.5355,1.5356,1.5356,1.5373,1.5374,1.5374,1.537,1.537,1.5369,1.5369,1.5386,1.5387,1.5388,0,0,0,0,0,0,0,0,0,0,0,0,0,1.5333,1.5317,1.5355,1.5356,1.5356,1.5373,1.5374,1.5374,1.537,1.537,1.5369,1.5369,1.5386,1.5387,1.5388,1.5406,0,0,1.5392,1.5393,0,0,0,0,0,0,0,0,1.5332,1.5335,1.5356,1.5356,1.5356,1.5369,1.5366,1.5385,1.537,1.5365,1.5369,1.5368,1.5381,1.5383,1.5387,1.5407,1.5407,1.5392,1.5393,1.5393,1.5394,0,0,0,0,0,0,0,1.5331,1.5334,1.5362,1.5356,1.5356,1.5355,1.5357,1.537,1.5376,1.5365,1.5365,1.5367,1.5381,1.5386,1.5388,1.5408,1.5392,1.5393,1.5394,1.5394,1.5442,1.5443,0,0,0,0,0,0,1.533,1.5333,1.5362,1.5363,1.5343,1.5356,1.5358,1.5365,1.5375,1.5377,1.5368,1.5367,1.5384,1.5386,1.5388,1.5409,1.5393,1.5394,1.5395,1.5442,1.5442,1.5443,0,0,0,0,0,0,1.5329,1.5332,1.5361,1.5348,1.5352,1.5357,1.5365,1.5366,1.5371,1.5377,1.5378,1.5372,1.5384,1.5387,1.5402,1.541,1.5395,1.5396,1.5441,1.5442,1.5443,1.5452,0,0,0,0,0,0,1.5328,1.5332,1.5339,1.5348,1.5352,1.5375,1.5366,1.5367,1.5373,1.5372,1.5381,1.5382,1.5384,1.54,1.5403,1.5411,1.5397,1.544,1.5441,1.5442,1.5451,1.5453,1.5455,0,0,0,0,0,1.5327,1.5341,1.534,1.5343,1.5361,1.5375,1.5377,1.5379,1.5374,1.5381,1.5385,1.5382,1.5408,1.5401,1.5405,1.5414,1.544,1.5441,1.5442,1.545,1.5453,1.5455,0,0,0,0,0,0,1.5333,1.5342,1.5341,1.5359,1.5366,1.5374,1.5383,1.5382,1.5391,1.539,1.5391,1.5393,1.5409,1.5412,1.5404,1.5431,1.5423,1.5425,1.5428,1.5431,1.5432,1.5431,1.5398,0,0,0,0,0,1.5336,1.5347,1.5354,1.5369,1.5373,1.5378,1.5384,1.5384,1.5392,1.5395,1.54,1.5408,1.5418,1.5424,1.5434,1.5451,1.5453,1.5459,1.5461,1.5462,1.5464,1.5474,1.5477,1.5447,1.5447,1.5447,0,0,1.5343,1.535,1.5356,1.5371,1.5377,1.5388,1.538,1.5392,1.54,1.5397,1.5412,1.5415,1.5424,1.544,1.5447,1.5444,1.5473,1.5464,1.5465,1.5466,1.5476,1.5478,1.5481,1.5448,1.5448,1.5448,0,0,1.5362,1.5368,1.5381,1.5387,1.5396,1.5399,1.5402,1.5411,1.5413,1.5428,1.5426,1.5435,1.5452,1.5458,1.5463,1.5484,1.5482,1.5487,1.5497,1.5507,1.5509,1.5511,1.5519,1.5522,1.5489,1.5489,1.5489,0,1.537,1.5387,1.5388,1.54,1.5407,1.5404,1.5417,1.5423,1.5435,1.5439,1.5434,1.5456,1.5461,1.5479,1.5484,1.5488,1.5492,1.5486,1.5509,1.5511,1.5513,1.552,1.5523,1.5489,1.5489,1.5489,1.5489,0,1.5396,1.5407,1.5417,1.5429,1.5436,1.5448,1.5452,1.5459,1.5458,1.5461,1.5476,1.5482,1.5493,1.5497,1.5497,1.5515,1.5512,1.5508,1.5501,1.5516,1.5523,1.5526,1.549,1.549,1.549,1.5489,0,0,1.542,1.5432,1.5435,1.5441,1.545,1.5459,1.5471,1.5482,1.5488,1.5496,1.5506,1.5521,1.5517,1.5523,1.5523,1.5531,1.5547,1.5526,1.5526,1.553,1.5568,1.5572,1.5575,1.5546,1.5546,1.5547,1.5567,0,1.544,1.5462,1.5464,1.5484,1.5494,1.5492,1.5502,1.5509,1.5512,1.5521,1.5524,1.5535,1.5529,1.5532,1.554,1.5544,1.5555,1.5542,1.5555,1.5556,1.5554,1.5578,1.5582,1.5602,1.557,1.5571,1.5571,0,1.5467,1.5476,1.5497,1.5505,1.551,1.5519,1.5529,1.5538,1.5545,1.5547,1.5554,1.5553,1.5565,1.5556,1.5573,1.5564,1.5569,1.5572,1.5573,1.5574,1.5565,1.5582,1.5608,1.5611,1.5575,1.5575,1.5574,0,1.5483,1.55,1.5515,1.552,1.5529,1.5536,1.554,1.5547,1.5554,1.5562,1.5566,1.5576,1.5581,1.5588,1.559,1.5583,1.5607,1.5598,1.5608,1.5608,1.5614,1.5614,1.5642,1.5616,1.5616,1.5616,1.5616,0,1.5506,1.5519,1.5523,1.5532,1.5546,1.5547,1.5562,1.5565,1.5572,1.5581,1.5579,1.5588,1.5589,1.5598,1.5599,1.5613,1.5616,1.5617,1.5617,1.5618,1.5618,1.5622,1.5621,1.5617,1.5617,1.5616,1.5616,0,1.5527,1.5529,1.5546,1.5553,1.5556,1.5566,1.5572,1.5581,1.5584,1.5596,1.5599,1.5603,1.5613,1.5615,1.5628,1.5628,1.5645,1.5644,1.5643,1.5643,1.5654,1.5653,1.5686,1.5691,1.5661,1.5661,1.5662,0,1.5541,1.5552,1.556,1.5567,1.5572,1.5582,1.5589,1.559,1.5596,1.5605,1.5613,1.5624,1.5632,1.5649,1.5653,1.5663,1.5662,1.5673,1.5663,1.5663,1.5663,1.5662,1.5663,1.5675,1.5675,1.5675,1.5676,0,1.5568,1.5568,1.5578,1.5588,1.5596,1.5604,1.5612,1.5617,1.5619,1.5627,1.5638,1.5644,1.5657,1.5668,1.5677,1.5681,1.5679,1.5678,1.5682,1.5682,1.5682,1.5683,1.5649,1.5678,1.5678,1.5678,1.5677,1.5677,1.5586,1.5595,1.5603,1.5614,1.5619,1.5626,1.5635,1.5639,1.5648,1.5659,1.5659,1.5671,1.5678,1.569,1.5695,1.5704,1.57,1.5705,1.5706,1.5707,1.5708,1.568,1.5706,1.5706,1.5705,1.5705,1.5705,0,1.5613,1.5617,1.5627,1.5638,1.5647,1.5644,1.5652,1.5659,1.567,1.5676,1.5685,1.5698,1.5708,1.5712,1.5722,1.5728,1.5728,1.5731,1.5731,1.5732,1.5711,1.5708,1.5732,1.5732,1.5732,1.5732,1.5732,1.5732,1.5628,1.5643,1.5645,1.5662,1.5667,1.5679,1.5684,1.569,1.5696,1.571,1.5719,1.5721,1.5727,1.5737,1.5746,1.5747,1.5751,1.5755,1.5756,1.5736,1.5733,1.5731,1.5728,1.5756,1.5756,1.5776,1.5776,1.5777]}]]